Tracking 19908 objects as of 19-Oct-2019
HD Live streaming from Space Station
objects crossing your sky now

SL-8 DEB *

Track SL-8 DEB * now!
10-day predictions


NORAD ID: 14345
Int'l Code: 1979-089C
Perigee: 678.6 km
Apogee: 694.7 km
Inclination: 74.0 °
Period: 98.3 minutes
Semi major axis: 7057 km
RCS: 0.0065 m2 (small)
Launch date: October 11, 1979
Source: Commonwealth of Independent States (former USSR) (CIS)
Launch site: PLESETSK MISSILE AND SPACE COMPLEX (PKMTR)

Note: This is SATELLITE DEBRIS
aabbcc
Your satellite tracking list
Your tracking list is empty




NASA's NSSDC Master Catalog

Two Line Element Set (TLE):
1 14345U 79089C   19292.49064905  .00000290  00000-0  60931-4 0  9994
2 14345  74.0245 350.3296 0011401 281.8700 139.3670 14.64227929921515
Source of the keplerian elements: AFSPC